#�ϑ�����,���ϕ���,���ϕ���,�ő啗��,�ő啗����������,�ő�u�ԕ���,�ő�u�ԕ�����������
#(�N����),(m/s)   ,(16����),(m/s)   ,(16����)        ,(m/s)       ,(16����)            
2012/10/23 0:01,1.2,1,1.2,1,2.4,16
2012/10/23 0:02,1.3,1,1.3,1,2.9,15
2012/10/23 0:03,1.3,1,1.3,1,2.6,15
2012/10/23 0:04,1.3,1,1.4,1,2.1,15
2012/10/23 0:05,1.2,1,1.3,1,0.9,15
2012/10/23 0:06,1.2,16,1.2,1,1.4,14
2012/10/23 0:07,1.2,16,1.2,1,1.8,16
2012/10/23 0:08,1.2,16,1.2,1,1.8,15
2012/10/23 0:09,1.1,16,1.2,1,0.9,15
2012/10/23 0:10,1,16,1.1,1,0.6,15
2012/10/23 0:11,0.9,16,1,1,1.3,15
2012/10/23 0:12,0.8,16,0.9,1,1.5,16
2012/10/23 0:13,0.7,16,0.8,1,1.8,16
2012/10/23 0:14,0.7,16,0.7,1,1.3,2
2012/10/23 0:15,0.7,1,0.7,1,0.9,4
2012/10/23 0:16,0.7,1,0.8,16,0.8,5
2012/10/23 0:17,0.7,1,0.7,16,1.4,1
2012/10/23 0:18,0.7,1,0.7,16,2.1,1
2012/10/23 0:19,0.8,1,0.8,16,2.2,3
2012/10/23 0:20,0.9,1,0.9,16,1.9,3
2012/10/23 0:21,0.9,1,1,1,1.4,2
2012/10/23 0:22,0.9,2,0.9,1,1.9,16
2012/10/23 0:23,1,1,1,1,2.2,16
2012/10/23 0:24,1.1,1,1.1,1,1.9,16
2012/10/23 0:25,1.1,1,1.1,1,1.6,15
2012/10/23 0:26,1.2,1,1.2,1,1.8,1
2012/10/23 0:27,1.2,1,1.2,1,1.5,16
2012/10/23 0:28,1.2,1,1.2,1,2.1,3
2012/10/23 0:29,1.2,1,1.2,1,2.1,1
2012/10/23 0:30,1.2,1,1.2,1,1.5,2
2012/10/23 0:31,1.2,1,1.2,1,1.1,16
2012/10/23 0:32,1.1,1,1.2,1,0.3,6
2012/10/23 0:33,0.9,1,1.1,1,0.5,15
2012/10/23 0:34,0.8,1,0.9,1,0.8,1
2012/10/23 0:35,0.7,2,0.8,1,1,1
2012/10/23 0:36,0.8,2,0.8,1,1.6,3
2012/10/23 0:37,0.8,2,0.8,1,1.6,3
2012/10/23 0:38,0.7,2,0.8,1,1.5,3
2012/10/23 0:39,0.6,2,0.7,1,0.8,3
2012/10/23 0:40,0.6,2,0.6,1,0.5,2
2012/10/23 0:41,0.6,2,0.6,1,0.9,1
2012/10/23 0:42,0.6,2,0.6,1,0.4,1
2012/10/23 0:43,0.6,2,0.6,1,1.1,16
2012/10/23 0:44,0.7,2,0.7,1,1.8,1
2012/10/23 0:45,0.7,2,0.7,2,2,3
2012/10/23 0:46,0.7,2,0.8,2,2.2,3
2012/10/23 0:47,0.7,2,0.7,2,1.8,2
2012/10/23 0:48,0.7,1,0.7,2,1.6,2
2012/10/23 0:49,0.8,2,0.8,2,1.5,3
2012/10/23 0:50,0.9,2,0.9,2,1.6,2
2012/10/23 0:51,0.9,2,0.9,2,1.8,3
2012/10/23 0:52,1,2,1,2,1.8,1
2012/10/23 0:53,0.9,2,1,2,0.8,1
2012/10/23 0:54,0.9,1,0.9,2,1.4,15
2012/10/23 0:55,0.9,1,0.9,2,1.3,15
2012/10/23 0:56,0.8,1,0.9,2,1.5,16
2012/10/23 0:57,0.9,1,0.9,2,1.8,15
2012/10/23 0:58,0.8,1,0.9,2,1,16
2012/10/23 0:59,0.8,1,0.8,2,0.9,1
2012/10/23 1:00,0.7,1,0.8,2,1.9,2
2012/10/23 1:01,0.8,16,0.8,2,1.8,1
2012/10/23 1:02,0.7,16,0.8,2,1.5,16
2012/10/23 1:03,0.8,16,0.8,2,1.8,15
2012/10/23 1:04,0.8,16,0.8,1,1.9,15
2012/10/23 1:05,0.9,16,0.9,1,1.8,16
2012/10/23 1:06,0.9,16,0.9,1,2.1,16
2012/10/23 1:07,0.9,16,0.9,1,2,16
2012/10/23 1:08,0.9,16,0.9,16,1.5,15
2012/10/23 1:09,1,16,1,16,1.1,16
2012/10/23 1:10,1,16,1,16,1.3,16
2012/10/23 1:11,0.9,16,0.9,16,1.4,1
2012/10/23 1:12,1,16,1,16,2.1,15
2012/10/23 1:13,1,16,1,16,1.4,1
2012/10/23 1:14,1,16,1,16,1.5,2
2012/10/23 1:15,1,1,1,16,2.9,2
2012/10/23 1:16,1,1,1,16,1.8,1
2012/10/23 1:17,0.9,1,1,16,1.3,16
2012/10/23 1:18,0.9,1,0.9,16,0.8,3
2012/10/23 1:19,0.9,1,0.9,16,2.2,3
2012/10/23 1:20,0.9,1,0.9,16,1.5,3
2012/10/23 1:21,0.9,1,0.9,16,1.6,16
2012/10/23 1:22,0.9,1,0.9,16,1.5,16
2012/10/23 1:23,0.9,1,0.9,16,1.8,16
2012/10/23 1:24,0.9,1,0.9,16,2.1,16
2012/10/23 1:25,0.9,1,0.9,1,2.5,15
2012/10/23 1:26,1,1,1,1,2.6,16
2012/10/23 1:27,1,16,1,1,2.5,15
2012/10/23 1:28,1.1,16,1.1,16,2.2,16
2012/10/23 1:29,1.2,16,1.2,16,2.2,15
2012/10/23 1:30,1.3,16,1.3,16,2,1
2012/10/23 1:31,1.4,16,1.4,16,2.4,16
2012/10/23 1:32,1.5,16,1.5,16,2.6,16
2012/10/23 1:33,1.6,16,1.6,16,2.9,16
2012/10/23 1:34,1.6,16,1.6,16,2.6,15
2012/10/23 1:35,1.5,16,1.6,16,1.6,15
2012/10/23 1:36,1.4,16,1.5,16,0.8,15
2012/10/23 1:37,1.4,16,1.4,16,1.9,16
2012/10/23 1:38,1.5,16,1.5,16,2.6,16
2012/10/23 1:39,1.4,16,1.5,16,1.8,1
2012/10/23 1:40,1.4,16,1.4,16,1.8,2
2012/10/23 1:41,1.3,16,1.4,16,2.2,2
2012/10/23 1:42,1.3,16,1.3,16,2.4,1
2012/10/23 1:43,1.2,16,1.3,16,1.8,1
2012/10/23 1:44,1.1,16,1.2,16,1.8,16
2012/10/23 1:45,1.1,16,1.1,16,1.6,15
2012/10/23 1:46,1.2,1,1.2,16,2.1,16
2012/10/23 1:47,1.3,1,1.3,16,2.2,16
2012/10/23 1:48,1.3,1,1.3,16,2.6,16
2012/10/23 1:49,1.3,1,1.3,16,2.7,14
2012/10/23 1:50,1.3,16,1.3,16,1.4,16
2012/10/23 1:51,1.2,16,1.2,16,1.3,1
2012/10/23 1:52,1.2,16,1.2,16,1.8,16
2012/10/23 1:53,1.2,16,1.2,1,2,16
2012/10/23 1:54,1.3,16,1.3,1,2.7,16
2012/10/23 1:55,1.4,16,1.4,16,2.7,16
2012/10/23 1:56,1.5,16,1.5,16,3,1
2012/10/23 1:57,1.5,16,1.5,16,2.7,1
2012/10/23 1:58,1.6,1,1.6,16,3.5,1
2012/10/23 1:59,1.7,1,1.7,1,2.9,1
2012/10/23 2:00,1.7,1,1.7,1,2,16
2012/10/23 2:01,1.8,1,1.8,1,2.5,1
2012/10/23 2:02,1.7,1,1.8,1,1.5,1
2012/10/23 2:03,1.8,1,1.8,1,2.6,2
2012/10/23 2:04,1.8,1,1.8,1,2.9,2
2012/10/23 2:05,1.7,1,1.8,1,2.5,2
2012/10/23 2:06,1.6,1,1.7,1,2,2
2012/10/23 2:07,1.5,1,1.6,1,2.1,1
2012/10/23 2:08,1.3,1,1.5,1,1.9,15
2012/10/23 2:09,1.2,1,1.3,1,1.5,16
2012/10/23 2:10,1.2,1,1.2,1,1.5,16
2012/10/23 2:11,1.1,1,1.2,1,1.3,3
2012/10/23 2:12,1.1,1,1.1,1,1.6,16
2012/10/23 2:13,1.1,1,1.1,1,1.6,1
2012/10/23 2:14,1,1,1.1,1,1.4,3
2012/10/23 2:15,1,1,1,1,1.9,16
2012/10/23 2:16,1,1,1,1,2,16
2012/10/23 2:17,1,1,1,1,1.5,1
2012/10/23 2:18,1,16,1,1,1.3,15
2012/10/23 2:19,1,16,1,1,1.4,16
2012/10/23 2:20,0.9,16,1,1,1.4,16
2012/10/23 2:21,1,1,1,1,0.9,3
2012/10/23 2:22,0.9,1,1,1,1.3,16
2012/10/23 2:23,0.9,1,0.9,1,1.3,16
2012/10/23 2:24,0.9,1,0.9,1,1.8,16
2012/10/23 2:25,0.9,1,0.9,1,2.9,1
2012/10/23 2:26,0.9,1,0.9,1,2.2,1
2012/10/23 2:27,0.9,1,0.9,1,1.9,1
2012/10/23 2:28,1,1,1,16,1.8,1
2012/10/23 2:29,1,1,1,16,2.5,2
2012/10/23 2:30,1.1,1,1.1,1,1.8,16
2012/10/23 2:31,1.2,1,1.2,1,2.2,2
2012/10/23 2:32,1.1,1,1.2,1,1.9,2
2012/10/23 2:33,1.1,1,1.1,1,0.6,15
2012/10/23 2:34,1,1,1.1,1,1,1
2012/10/23 2:35,0.9,1,1,1,1.1,2
2012/10/23 2:36,0.9,1,0.9,1,1.8,2
2012/10/23 2:37,1,1,1,1,2.7,1
2012/10/23 2:38,1,2,1,1,2.9,1
2012/10/23 2:39,1,2,1,1,1.9,2
2012/10/23 2:40,1.1,2,1.1,1,2.6,2
2012/10/23 2:41,1,2,1.1,1,2.1,2
2012/10/23 2:42,1.1,2,1.1,1,2.5,3
2012/10/23 2:43,1.2,2,1.2,2,2.2,2
2012/10/23 2:44,1.3,2,1.3,2,1.6,2
2012/10/23 2:45,1.3,1,1.3,2,1.8,16
2012/10/23 2:46,1.4,1,1.4,1,2.4,1
2012/10/23 2:47,1.4,1,1.4,1,2.6,1
2012/10/23 2:48,1.4,1,1.4,1,3,2
2012/10/23 2:49,1.5,1,1.5,1,2.5,16
2012/10/23 2:50,1.5,1,1.5,1,2.7,15
2012/10/23 2:51,1.6,1,1.6,1,3,16
2012/10/23 2:52,1.7,1,1.7,1,3.6,1
2012/10/23 2:53,1.7,1,1.7,1,3,1
2012/10/23 2:54,1.9,1,1.9,1,3.6,1
2012/10/23 2:55,2,1,2,1,3.3,1
2012/10/23 2:56,2.1,1,2.1,1,3.3,2
2012/10/23 2:57,2.1,1,2.1,1,2.9,2
2012/10/23 2:58,2,1,2.1,1,2.9,2
2012/10/23 2:59,2,1,2,1,2.6,16
2012/10/23 3:00,2,2,2,1,2.6,3
2012/10/23 3:01,1.9,2,2,1,2,2
2012/10/23 3:02,1.8,2,1.9,1,2.1,3
2012/10/23 3:03,1.8,2,1.8,1,3,2
2012/10/23 3:04,1.7,2,1.8,1,3.6,3
2012/10/23 3:05,1.7,2,1.7,1,2.2,3
2012/10/23 3:06,1.6,2,1.7,1,2.7,4
2012/10/23 3:07,1.7,2,1.7,1,2.6,4
2012/10/23 3:08,1.7,2,1.7,1,2.6,2
2012/10/23 3:09,1.6,2,1.7,2,2.2,2
2012/10/23 3:10,1.5,2,1.6,2,1.5,3
2012/10/23 3:11,1.6,2,1.6,2,4.1,1
2012/10/23 3:12,1.6,2,1.6,2,3.3,3
2012/10/23 3:13,1.7,2,1.7,2,2.7,2
2012/10/23 3:14,1.5,2,1.7,2,2,2
2012/10/23 3:15,1.5,2,1.5,2,2.6,3
2012/10/23 3:16,1.5,2,1.5,2,2.9,2
2012/10/23 3:17,1.5,2,1.5,2,2.9,2
2012/10/23 3:18,1.5,2,1.5,2,2.1,1
2012/10/23 3:19,1.5,2,1.5,2,2.6,2
2012/10/23 3:20,1.6,2,1.6,2,3.1,3
2012/10/23 3:21,1.6,2,1.7,2,2.5,3
2012/10/23 3:22,1.6,2,1.6,2,2.2,1
2012/10/23 3:23,1.5,2,1.6,2,2.2,1
2012/10/23 3:24,1.5,2,1.5,2,2,1
2012/10/23 3:25,1.5,2,1.5,2,1.8,1
2012/10/23 3:26,1.4,2,1.5,2,1.8,2
2012/10/23 3:27,1.4,1,1.4,2,2,1
2012/10/23 3:28,1.4,1,1.4,2,2.5,2
2012/10/23 3:29,1.4,1,1.4,2,2.9,1
2012/10/23 3:30,1.4,1,1.5,2,2.5,2
2012/10/23 3:31,1.3,1,1.4,2,1.8,2
2012/10/23 3:32,1.3,1,1.3,2,1.5,16
2012/10/23 3:33,1.3,1,1.3,2,2.2,16
2012/10/23 3:34,1.4,1,1.4,2,2.4,2
2012/10/23 3:35,1.4,1,1.4,2,2.1,16
2012/10/23 3:36,1.4,1,1.4,1,2.6,2
2012/10/23 3:37,1.4,1,1.4,1,2.2,1
2012/10/23 3:38,1.4,1,1.4,1,2.4,1
2012/10/23 3:39,1.4,1,1.4,1,2,1
2012/10/23 3:40,1.4,1,1.4,1,2.1,16
2012/10/23 3:41,1.4,1,1.4,1,2.1,15
2012/10/23 3:42,1.5,1,1.5,1,2.4,16
2012/10/23 3:43,1.4,1,1.5,1,2.2,1
2012/10/23 3:44,1.3,1,1.4,1,2.5,1
2012/10/23 3:45,1.3,1,1.3,1,1.5,15
2012/10/23 3:46,1.2,1,1.3,1,1.8,1
2012/10/23 3:47,1.3,1,1.3,1,2.1,16
2012/10/23 3:48,1.3,16,1.3,1,2.1,15
2012/10/23 3:49,1.3,16,1.3,1,2.4,16
2012/10/23 3:50,1.3,16,1.4,1,2.4,15
2012/10/23 3:51,1.4,16,1.4,1,2.6,16
2012/10/23 3:52,1.3,16,1.4,1,2,15
2012/10/23 3:53,1.4,16,1.4,1,1.8,1
2012/10/23 3:54,1.3,16,1.4,16,1.6,1
2012/10/23 3:55,1.4,16,1.4,16,2,1
2012/10/23 3:56,1.4,16,1.4,16,1.8,16
2012/10/23 3:57,1.4,16,1.4,16,2.1,15
2012/10/23 3:58,1.4,16,1.4,16,2.2,15
2012/10/23 3:59,1.4,16,1.4,16,2.6,16
2012/10/23 4:00,1.4,16,1.4,16,3,16
2012/10/23 4:01,1.5,16,1.5,16,3.2,16
2012/10/23 4:02,1.6,16,1.6,16,2.7,16
2012/10/23 4:03,1.7,16,1.7,16,3.1,16
2012/10/23 4:04,1.9,16,1.9,16,3.1,16
2012/10/23 4:05,2.1,16,2.1,16,4.2,16
2012/10/23 4:06,2.3,16,2.3,16,5.5,16
2012/10/23 4:07,2.6,16,2.6,16,6.2,16
2012/10/23 4:08,2.9,16,2.9,16,6,16
2012/10/23 4:09,3.3,16,3.3,16,6.8,1
2012/10/23 4:10,3.7,16,3.7,16,15.7,15
2012/10/23 4:11,4.4,16,4.4,16,18.3,15
2012/10/23 4:12,5.4,16,5.4,16,19.7,16
2012/10/23 4:13,6.4,16,6.4,16,23.3,14
2012/10/23 4:14,7.6,16,7.6,16,21.6,16
2012/10/23 4:15,8.8,16,8.8,16,21.8,16
2012/10/23 4:16,9.5,16,9.5,16,17.6,15
2012/10/23 4:17,9.8,16,9.8,16,13.8,16
2012/10/23 4:18,10.3,16,10.4,16,14.2,16
2012/10/23 4:19,10.6,16,10.6,16,13.2,15
2012/10/23 4:20,10.7,15,10.9,15,10.2,1
2012/10/23 4:21,10.3,16,10.8,15,8.9,16
2012/10/23 4:22,9.5,15,10.2,15,7.7,16
2012/10/23 4:23,8.8,15,9.5,15,9.1,16
2012/10/23 4:24,8.1,15,8.8,15,10.9,15
2012/10/23 4:25,7.4,15,7.9,15,11.4,16
2012/10/23 4:26,6.8,15,7.3,15,8.6,16
2012/10/23 4:27,6.4,15,6.8,15,7.1,1
2012/10/23 4:28,5.9,15,6.4,15,8.1,15
2012/10/23 4:29,5.7,15,5.8,15,12.1,15
2012/10/23 4:30,5.6,15,5.7,15,7.7,15
2012/10/23 4:31,5.4,15,5.6,16,5.7,14
2012/10/23 4:32,5.5,15,5.6,15,9.7,16
2012/10/23 4:33,5.3,15,5.5,15,6.1,13
2012/10/23 4:34,5,14,5.3,15,5.1,11
2012/10/23 4:35,4.3,14,4.9,15,3.7,15
2012/10/23 4:36,4.1,14,4.3,15,7.2,16
2012/10/23 4:37,3.9,14,4.1,15,4.1,13
2012/10/23 4:38,3.7,14,3.9,15,2.7,13
2012/10/23 4:39,3.1,14,3.6,15,2,14
2012/10/23 4:40,2.6,14,3.1,15,1.8,15
2012/10/23 4:41,2.6,14,2.6,15,3.5,16
2012/10/23 4:42,2.2,14,2.6,15,4.1,16
2012/10/23 4:43,2.1,14,2.2,15,7.7,12
2012/10/23 4:44,2.2,14,2.2,14,11.6,15
2012/10/23 4:45,2.3,14,2.3,14,5.1,14
2012/10/23 4:46,2.3,14,2.3,14,5.1,12
2012/10/23 4:47,2.4,14,2.4,14,6.1,14
2012/10/23 4:48,2.5,14,2.5,14,6.1,13
2012/10/23 4:49,2.9,14,2.9,14,7.8,13
2012/10/23 4:50,3.3,13,3.3,13,6.1,12
2012/10/23 4:51,3.5,13,3.5,13,7.4,12
2012/10/23 4:52,3.8,13,3.8,13,6.7,13
2012/10/23 4:53,3.7,13,3.8,13,3.8,10
2012/10/23 4:54,3.5,13,3.7,13,3.9,9
2012/10/23 4:55,3.4,12,3.5,13,5.6,12
2012/10/23 4:56,3.5,13,3.6,13,5.8,14
2012/10/23 4:57,3.4,13,3.5,13,3.5,12
2012/10/23 4:58,3.3,13,3.3,13,4.4,14
2012/10/23 4:59,3,12,3.2,13,5,13
2012/10/23 5:00,3,12,3.1,13,5.7,14
2012/10/23 5:01,2.9,12,3.1,13,5.6,12
2012/10/23 5:02,2.6,12,2.9,13,3.2,13
2012/10/23 5:03,2.7,12,2.7,13,5,11
2012/10/23 5:04,3,12,3,13,8.5,12
2012/10/23 5:05,3,12,3.1,13,4.5,11
2012/10/23 5:06,3,12,3,13,6.3,12
2012/10/23 5:07,3,12,3,13,4.3,13
2012/10/23 5:08,3,12,3,13,4.7,11
2012/10/23 5:09,2.9,11,3,12,4.2,10
2012/10/23 5:10,2.6,11,2.8,12,3.9,9
2012/10/23 5:11,2.6,11,2.6,12,6,9
2012/10/23 5:12,2.7,11,2.7,12,5.8,9
2012/10/23 5:13,2.7,11,2.7,12,5.6,10
2012/10/23 5:14,2.4,11,2.7,12,4.4,10
2012/10/23 5:15,2.3,10,2.4,12,3.1,11
2012/10/23 5:16,2.2,10,2.3,12,2.9,10
2012/10/23 5:17,2.1,10,2.2,12,2.6,9
2012/10/23 5:18,1.8,10,2.1,12,1.4,9
2012/10/23 5:19,1.7,10,1.8,11,1.3,9
2012/10/23 5:20,1.6,11,1.7,11,1,12
2012/10/23 5:21,1.4,11,1.6,11,2.2,1
2012/10/23 5:22,1.3,11,1.4,11,2.5,2
2012/10/23 5:23,1.1,11,1.2,11,2.2,2
2012/10/23 5:24,0.9,11,1.1,11,1.5,9
2012/10/23 5:25,1,10,1,10,3,10
2012/10/23 5:26,1,10,1,10,3.5,9
2012/10/23 5:27,1,10,1.1,10,4.1,9
2012/10/23 5:28,1.3,10,1.3,10,5.4,11
2012/10/23 5:29,1.4,10,1.4,10,2.9,10
2012/10/23 5:30,1.5,10,1.5,11,2.7,12
2012/10/23 5:31,1.5,10,1.6,10,1.9,2
2012/10/23 5:32,1.6,11,1.6,10,3.6,16
2012/10/23 5:33,1.7,11,1.7,11,2.7,16
2012/10/23 5:34,1.8,12,1.8,12,2.9,16
2012/10/23 5:35,2,13,2,12,7.9,16
2012/10/23 5:36,2.3,14,2.3,13,6.1,16
2012/10/23 5:37,2.4,14,2.4,14,3.3,16
2012/10/23 5:38,2.3,15,2.4,14,4.3,14
2012/10/23 5:39,2.3,15,2.3,14,3.7,1
2012/10/23 5:40,2.4,16,2.4,14,5.6,16
2012/10/23 5:41,2.8,16,2.8,16,9.8,14
2012/10/23 5:42,2.9,16,2.9,16,5.6,1
2012/10/23 5:43,3.2,16,3.2,16,11.1,16
2012/10/23 5:44,3.7,16,3.7,16,11.3,1
2012/10/23 5:45,3.7,16,3.8,16,10.8,14
2012/10/23 5:46,3.9,16,3.9,16,11.3,14
2012/10/23 5:47,3.9,16,3.9,16,4.8,16
2012/10/23 5:48,3.8,16,3.9,16,3.2,3
2012/10/23 5:49,3.8,16,3.9,16,2.1,3
2012/10/23 5:50,3.7,16,3.8,16,4.5,9
2012/10/23 5:51,3.3,16,3.7,16,3.2,8
2012/10/23 5:52,3.4,15,3.4,16,8.2,9
2012/10/23 5:53,3.3,12,3.5,16,7,9
2012/10/23 5:54,2.8,10,3.3,16,3.9,9
2012/10/23 5:55,2.5,10,2.7,16,5.2,8
2012/10/23 5:56,2,9,2.5,16,2,4
2012/10/23 5:57,2.1,9,2.1,16,8.3,1
2012/10/23 5:58,2.2,10,2.2,16,6.5,16
2012/10/23 5:59,2.3,11,2.3,16,3,1
2012/10/23 6:00,2.1,11,2.3,16,1.6,4
2012/10/23 6:01,2.1,13,2.1,15,2.4,3
2012/10/23 6:02,1.8,15,2.1,15,2.5,3
2012/10/23 6:03,1.6,15,1.8,11,3.3,9
2012/10/23 6:04,1.9,15,1.9,10,6.5,13
2012/10/23 6:05,2,15,2,9,5.1,11
2012/10/23 6:06,2.1,14,2.1,10,4.9,9
2012/10/23 6:07,1.9,13,2.1,10,3.2,10
2012/10/23 6:08,1.8,12,1.9,10,3.7,11
2012/10/23 6:09,1.8,12,1.8,10,3.7,10
2012/10/23 6:10,1.8,11,1.8,11,3.5,11
2012/10/23 6:11,1.8,11,1.8,13,1.6,14
2012/10/23 6:12,2,11,2,15,5,10
2012/10/23 6:13,2.1,11,2.1,15,5,10
2012/10/23 6:14,1.9,10,2.1,15,5.7,10
2012/10/23 6:15,1.9,10,2,15,4.2,10
2012/10/23 6:16,2,11,2,14,4.5,12
2012/10/23 6:17,2.4,11,2.4,11,7,16
2012/10/23 6:18,2.3,11,2.4,11,4.1,16
2012/10/23 6:19,2.2,12,2.3,11,1.3,15
2012/10/23 6:20,2.2,13,2.2,11,2.9,15
2012/10/23 6:21,2.3,13,2.3,11,2.6,15
2012/10/23 6:22,2.1,14,2.3,11,2.1,12
2012/10/23 6:23,2,14,2.1,11,2.4,12
2012/10/23 6:24,1.9,14,1.9,11,2.2,11
2012/10/23 6:25,1.8,14,1.8,11,4.2,13
2012/10/23 6:26,1.7,14,1.8,11,2.7,14
2012/10/23 6:27,1.4,13,1.7,11,2.7,10
2012/10/23 6:28,1.5,13,1.5,12,2.5,11
2012/10/23 6:29,1.6,12,1.6,13,2.4,10
2012/10/23 6:30,1.6,12,1.6,13,2.1,16
2012/10/23 6:31,1.6,12,1.7,13,3,15
2012/10/23 6:32,1.7,13,1.7,14,2.5,1
2012/10/23 6:33,1.6,13,1.7,14,1.4,16
2012/10/23 6:34,1.5,14,1.5,14,1.8,16
2012/10/23 6:35,1.4,14,1.5,14,2.2,15
2012/10/23 6:36,1.4,14,1.4,14,2.6,15
2012/10/23 6:37,1.3,15,1.4,12,1.8,16
2012/10/23 6:38,1.2,15,1.3,12,2.7,9
2012/10/23 6:39,1.2,15,1.2,12,3.1,14
2012/10/23 6:40,1.2,15,1.2,12,1.5,8
2012/10/23 6:41,1.2,15,1.2,12,3,12
2012/10/23 6:42,1.2,14,1.2,13,2.1,12
2012/10/23 6:43,1.2,13,1.2,13,0.8,10
2012/10/23 6:44,1.2,12,1.2,14,1.6,9
2012/10/23 6:45,1.1,12,1.2,14,1.1,9
2012/10/23 6:46,1,11,1.1,14,1,11
2012/10/23 6:47,1.1,11,1.1,15,2.2,10
2012/10/23 6:48,1.1,12,1.1,15,2,15
2012/10/23 6:49,1,12,1.1,15,1.3,4
2012/10/23 6:50,0.9,12,0.9,15,1.5,14
2012/10/23 6:51,0.9,12,0.9,15,3,14
2012/10/23 6:52,0.9,12,0.9,14,2.9,15
2012/10/23 6:53,1.1,13,1.1,13,3.8,16
2012/10/23 6:54,1.2,13,1.2,12,2.7,15
2012/10/23 6:55,1.3,14,1.3,13,3.3,11
2012/10/23 6:56,1.5,13,1.5,13,6.2,11
2012/10/23 6:57,1.8,14,1.8,14,6.4,15
2012/10/23 6:58,2,14,2,14,5.4,14
2012/10/23 6:59,2.1,14,2.1,14,2,15
2012/10/23 7:00,2.3,14,2.3,14,4.8,16
2012/10/23 7:01,2.5,14,2.5,14,4.1,14
2012/10/23 7:02,2.6,14,2.6,14,4.1,14
2012/10/23 7:03,2.5,14,2.6,14,3.1,16
2012/10/23 7:04,2.6,14,2.6,14,3.2,16
2012/10/23 7:05,2.5,15,2.6,14,1.8,15
2012/10/23 7:06,2.3,15,2.5,14,1.4,15
2012/10/23 7:07,2,15,2.3,14,1.4,15
2012/10/23 7:08,1.7,15,1.9,14,1.4,1
2012/10/23 7:09,1.8,15,1.8,14,3.1,1
2012/10/23 7:10,1.7,16,1.8,14,2.7,1
2012/10/23 7:11,1.6,16,1.7,14,2.4,2
2012/10/23 7:12,1.4,16,1.5,14,1.9,3
2012/10/23 7:13,1.3,16,1.4,14,1.1,12
2012/10/23 7:14,1.2,16,1.3,14,2.2,13
2012/10/23 7:15,1.2,16,1.2,15,1.3,14
2012/10/23 7:16,1.3,16,1.3,15,1.9,12
2012/10/23 7:17,1.3,15,1.3,15,1.8,11
2012/10/23 7:18,1.3,14,1.3,15,1.1,10
2012/10/23 7:19,1.2,13,1.3,15,2.7,15
2012/10/23 7:20,1.3,13,1.3,16,3.3,15
2012/10/23 7:21,1.4,13,1.4,16,4.4,15
2012/10/23 7:22,1.5,13,1.5,13,2.6,16
2012/10/23 7:23,1.5,13,1.5,13,2.4,16
2012/10/23 7:24,1.4,13,1.5,13,0.9,1
2012/10/23 7:25,1.4,13,1.4,13,1.1,15
2012/10/23 7:26,1.3,14,1.4,13,1,13
2012/10/23 7:27,1.3,14,1.3,13,1.8,11
2012/10/23 7:28,1.4,14,1.4,13,2.2,11
2012/10/23 7:29,1.4,14,1.4,13,4.5,16
2012/10/23 7:30,1.5,14,1.5,13,4.9,14
2012/10/23 7:31,1.4,14,1.5,13,3.7,16
2012/10/23 7:32,1.5,14,1.5,13,2.7,15
2012/10/23 7:33,1.5,14,1.5,13,2,15
2012/10/23 7:34,1.6,14,1.6,14,2,15
2012/10/23 7:35,1.7,14,1.7,14,3.3,16
2012/10/23 7:36,1.9,14,1.9,14,3.1,15
2012/10/23 7:37,2,15,2,15,2.7,15
2012/10/23 7:38,2.1,15,2.1,15,2.5,15
2012/10/23 7:39,2.2,15,2.2,15,3,16
2012/10/23 7:40,2,15,2.2,15,2.9,15
2012/10/23 7:41,2.1,15,2.1,15,3.2,15
2012/10/23 7:42,2,15,2,15,2.1,16
2012/10/23 7:43,2,15,2,15,2.4,15
2012/10/23 7:44,2.1,15,2.1,15,2.5,15
2012/10/23 7:45,2,15,2.1,15,2.4,14
2012/10/23 7:46,2,15,2,15,3.8,15
2012/10/23 7:47,1.9,15,2,15,3.1,15
2012/10/23 7:48,1.9,15,1.9,15,2.2,15
2012/10/23 7:49,1.8,15,1.9,15,2.5,15
2012/10/23 7:50,1.7,15,1.8,15,2.5,15
2012/10/23 7:51,1.7,15,1.7,15,2.6,15
2012/10/23 7:52,1.6,15,1.7,15,1.5,15
2012/10/23 7:53,1.6,15,1.6,15,2.2,14
2012/10/23 7:54,1.6,15,1.6,15,2.5,15
2012/10/23 7:55,1.5,15,1.6,15,2.1,16
2012/10/23 7:56,1.3,15,1.5,15,1.3,2
2012/10/23 7:57,1.2,15,1.3,15,1.1,13
2012/10/23 7:58,1.2,15,1.2,15,1.8,11
2012/10/23 7:59,1.2,14,1.2,15,2.5,12
2012/10/23 8:00,1.2,14,1.2,15,2.4,12
2012/10/23 8:01,1.1,13,1.2,15,1.3,13
2012/10/23 8:02,1.1,13,1.1,15,1.6,9
2012/10/23 8:03,1.1,12,1.1,15,2.2,9
2012/10/23 8:04,1.1,11,1.1,15,2.7,9
2012/10/23 8:05,1,11,1.1,15,1.5,9
2012/10/23 8:06,1,11,1,15,1,12
2012/10/23 8:07,1.1,11,1.1,15,1.9,12
2012/10/23 8:08,1.1,11,1.1,15,2,12
2012/10/23 8:09,1.1,11,1.1,14,1.6,13
2012/10/23 8:10,1,11,1,14,1.4,12
2012/10/23 8:11,1.1,12,1.1,13,2.2,13
2012/10/23 8:12,1.1,12,1.1,13,2,12
2012/10/23 8:13,1.1,12,1.2,12,1.1,16
2012/10/23 8:14,1,13,1.1,12,1.8,12
2012/10/23 8:15,0.9,13,1,12,1.1,9
2012/10/23 8:16,0.9,12,0.9,12,1,8
2012/10/23 8:17,0.8,12,0.9,12,1.8,9
2012/10/23 8:18,0.9,12,0.9,12,2.1,9
2012/10/23 8:19,0.9,12,0.9,12,2.4,9
2012/10/23 8:20,0.9,11,0.9,12,2.5,9
2012/10/23 8:21,0.9,11,0.9,12,1.9,9
2012/10/23 8:22,0.9,10,0.9,12,2.4,9
2012/10/23 8:23,1,10,1,13,2.1,12
2012/10/23 8:24,1,10,1,13,1.9,11
2012/10/23 8:25,1,10,1,10,1.8,10
2012/10/23 8:26,1.1,10,1.1,10,1.5,10
2012/10/23 8:27,1.2,11,1.2,11,1.9,12
2012/10/23 8:28,1.1,11,1.2,11,1.6,11
2012/10/23 8:29,1.1,11,1.1,11,1.9,13
2012/10/23 8:30,1,11,1.1,11,1.4,13
2012/10/23 8:31,1,12,1,11,0.9,14
2012/10/23 8:32,0.9,12,1,11,1,13
2012/10/23 8:33,0.8,12,0.9,11,1,12
2012/10/23 8:34,0.8,12,0.8,11,1.1,10
2012/10/23 8:35,0.7,12,0.8,11,0.8,8
2012/10/23 8:36,0.7,12,0.8,11,2,10
2012/10/23 8:37,0.6,12,0.7,11,1.1,10
2012/10/23 8:38,0.6,11,0.6,11,1.1,9
2012/10/23 8:39,0.5,11,0.6,11,1.4,7
2012/10/23 8:40,0.5,10,0.5,11,1.4,10
2012/10/23 8:41,0.5,10,0.6,12,0.9,9
2012/10/23 8:42,0.5,10,0.6,12,0.5,9
2012/10/23 8:43,0.5,10,0.5,12,0.1,8
2012/10/23 8:44,0.4,10,0.5,12,0.1,1
2012/10/23 8:45,0.4,10,0.4,12,0.3,11
2012/10/23 8:46,0.3,10,0.4,12,0.1,9
2012/10/23 8:47,0.3,11,0.3,12,0.4,13
2012/10/23 8:48,0.2,11,0.3,11,0.5,13
2012/10/23 8:49,0.2,12,0.2,10,1,14
2012/10/23 8:50,0.2,13,0.2,10,1.3,13
2012/10/23 8:51,0.2,13,0.2,10,0.8,14
2012/10/23 8:52,0.2,13,0.2,10,0.6,12
2012/10/23 8:53,0.2,13,0.2,10,0.8,13
2012/10/23 8:54,0.3,13,0.3,10,0.5,13
2012/10/23 8:55,0.3,13,0.3,10,0.1,14
2012/10/23 8:56,0.3,13,0.3,10,0.3,11
2012/10/23 8:57,0.3,13,0.3,11,0.5,12
2012/10/23 8:58,0.3,13,0.3,13,0.6,13
2012/10/23 8:59,0.2,12,0.3,13,0.3,16
2012/10/23 9:00,0.3,13,0.3,13,1.1,1
2012/10/23 9:01,0.3,13,0.3,13,1,1
2012/10/23 9:02,0.3,13,0.3,13,0.5,15
2012/10/23 9:03,0.3,14,0.3,13,1,16
2012/10/23 9:04,0.3,14,0.3,13,1,16
2012/10/23 9:05,0.4,15,0.4,15,1.4,1
2012/10/23 9:06,0.5,16,0.5,15,1.4,1
2012/10/23 9:07,0.6,16,0.6,16,1,16
2012/10/23 9:08,0.6,16,0.6,16,0.6,16
2012/10/23 9:09,0.6,1,0.6,16,0.1,2
2012/10/23 9:10,0.5,1,0.6,16,0.9,2
2012/10/23 9:11,0.5,1,0.5,16,1.1,3
2012/10/23 9:12,0.6,1,0.6,16,1.1,2
2012/10/23 9:13,0.6,1,0.6,16,1.1,2
2012/10/23 9:14,0.5,1,0.6,16,0.9,3
2012/10/23 9:15,0.5,2,0.5,16,1.4,4
2012/10/23 9:16,0.5,2,0.5,16,1,2
2012/10/23 9:17,0.5,2,0.5,16,1,2
2012/10/23 9:18,0.5,2,0.5,16,1.1,16
2012/10/23 9:19,0.6,2,0.6,1,2,2
2012/10/23 9:20,0.7,2,0.7,2,1.9,2
2012/10/23 9:21,0.8,2,0.8,2,1.5,2
2012/10/23 9:22,0.8,2,0.8,2,1.9,2
2012/10/23 9:23,1,2,1,2,2.5,3
2012/10/23 9:24,1.1,2,1.1,2,1.9,3
2012/10/23 9:25,1.1,2,1.1,2,2.1,3
2012/10/23 9:26,1.2,2,1.2,2,1.5,3
2012/10/23 9:27,1.2,2,1.2,2,1.8,3
2012/10/23 9:28,1.3,3,1.3,2,1.5,3
2012/10/23 9:29,1.2,3,1.3,2,1.4,3
2012/10/23 9:30,1.2,3,1.2,2,1.6,4
2012/10/23 9:31,1.2,3,1.2,2,1.6,4
2012/10/23 9:32,1.2,3,1.2,2,2,3
2012/10/23 9:33,1.2,3,1.2,2,2.1,3
2012/10/23 9:34,1.1,3,1.2,2,1.3,2
2012/10/23 9:35,1.1,3,1.1,2,1.5,16
2012/10/23 9:36,1,3,1.1,2,0.5,16
2012/10/23 9:37,0.9,3,0.9,2,0.3,2
2012/10/23 9:38,0.8,2,0.9,3,0.3,3
2012/10/23 9:39,0.7,2,0.7,3,0.4,2
2012/10/23 9:40,0.6,2,0.7,3,0.1,4
2012/10/23 9:41,0.4,2,0.6,3,0.1,3
2012/10/23 9:42,0.3,2,0.4,3,0.1,3
2012/10/23 9:43,0.1,2,0.3,3,0.1,13
2012/10/23 9:44,0.2,2,0.2,3,1,6
2012/10/23 9:45,0.1,3,0.2,3,0.9,7
2012/10/23 9:46,0.2,3,0.2,3,1.4,6
2012/10/23 9:47,0.3,4,0.3,3,1.3,6
2012/10/23 9:48,0.3,5,0.3,2,1,6
2012/10/23 9:49,0.3,5,0.3,2,0.6,5
2012/10/23 9:50,0.3,6,0.3,2,0.1,8
2012/10/23 9:51,0.3,7,0.3,2,0.8,8
2012/10/23 9:52,0.3,7,0.3,2,0.6,9
2012/10/23 9:53,0.3,7,0.3,4,0.1,3
2012/10/23 9:54,0.3,6,0.3,4,0.9,6
2012/10/23 9:55,0.3,6,0.3,4,1,6
2012/10/23 9:56,0.3,6,0.4,6,1,6
2012/10/23 9:57,0.3,5,0.3,6,0.9,3
2012/10/23 9:58,0.3,5,0.3,6,1,2
2012/10/23 9:59,0.4,3,0.4,6,2,16
2012/10/23 10:00,0.6,2,0.6,2,2.5,15
2012/10/23 10:01,0.7,2,0.7,2,2.4,16
2012/10/23 10:02,0.9,2,0.9,2,2.7,16
2012/10/23 10:03,1.1,1,1.1,1,2.7,16
2012/10/23 10:04,1.2,1,1.2,1,2.6,1
2012/10/23 10:05,1.4,16,1.4,16,2.9,1
2012/10/23 10:06,1.4,16,1.4,16,2,16
2012/10/23 10:07,1.4,16,1.4,16,0.8,15
2012/10/23 10:08,1.4,16,1.4,16,0.3,6
2012/10/23 10:09,1.2,16,1.4,16,0.6,15
2012/10/23 10:10,1.1,16,1.2,16,1,1
2012/10/23 10:11,1,16,1.1,16,1.5,16
2012/10/23 10:12,0.9,16,1,16,1.4,16
2012/10/23 10:13,0.8,16,0.9,16,1.9,15
2012/10/23 10:14,0.7,15,0.8,16,1.8,15
2012/10/23 10:15,0.6,15,0.7,16,1.4,16
2012/10/23 10:16,0.5,15,0.6,16,0.5,16
2012/10/23 10:17,0.6,15,0.6,16,1.9,10
2012/10/23 10:18,0.6,15,0.6,16,1.5,10
2012/10/23 10:19,0.6,14,0.6,16,0.6,10
2012/10/23 10:20,0.6,14,0.6,16,0.1,5
2012/10/23 10:21,0.6,12,0.6,16,1.1,7
2012/10/23 10:22,0.6,11,0.6,16,1.1,5
2012/10/23 10:23,0.5,8,0.6,16,0.9,5
2012/10/23 10:24,0.6,7,0.6,15,1.4,5
2012/10/23 10:25,0.6,7,0.6,15,1.5,5
2012/10/23 10:26,0.6,7,0.6,15,1.3,8
2012/10/23 10:27,0.6,7,0.6,15,1.3,8
2012/10/23 10:28,0.5,7,0.6,15,0.4,7
2012/10/23 10:29,0.5,6,0.5,14,0.9,9
2012/10/23 10:30,0.5,6,0.5,14,0.8,9
2012/10/23 10:31,0.5,7,0.5,12,0.8,10
2012/10/23 10:32,0.6,7,0.6,10,1.9,13
2012/10/23 10:33,0.7,8,0.7,8,2,13
2012/10/23 10:34,0.7,10,0.7,8,1.8,12
2012/10/23 10:35,0.7,10,0.7,8,1.3,12
2012/10/23 10:36,0.7,11,0.7,8,1,13
2012/10/23 10:37,0.8,12,0.8,12,1.3,11
2012/10/23 10:38,0.9,12,0.9,12,1.6,11
2012/10/23 10:39,0.9,12,0.9,12,1.5,11
2012/10/23 10:40,1.1,12,1.1,12,2.4,10
2012/10/23 10:41,1.2,12,1.2,12,2.4,11
2012/10/23 10:42,1.2,11,1.2,12,2.1,9
2012/10/23 10:43,1.1,11,1.2,12,1.9,10
2012/10/23 10:44,1.1,11,1.1,12,2.2,8
2012/10/23 10:45,1.3,10,1.3,10,3.2,10
2012/10/23 10:46,1.4,10,1.4,10,2.9,8
2012/10/23 10:47,1.7,10,1.7,10,5.5,8
2012/10/23 10:48,1.9,9,1.9,9,4.1,8
2012/10/23 10:49,2,9,2,9,3.3,9
2012/10/23 10:50,2,9,2,9,2.7,8
2012/10/23 10:51,2,9,2,9,2,8
2012/10/23 10:52,1.9,9,2,9,1.8,10
2012/10/23 10:53,1.9,9,1.9,9,1.6,8
2012/10/23 10:54,1.9,9,1.9,9,1.4,10
2012/10/23 10:55,1.7,9,1.9,9,1.5,9
2012/10/23 10:56,1.6,9,1.7,9,1.3,8